Starlink 30854

operational
NORAD ID: 58244 Int'l Des: 2023-171 Owner: SPXS Country: US Constellation: starlink
LEOCIRCULAR

关于 Starlink 30854

正在加载描述...

实时位置

正在加载3D地球...

即将过境

高度历史

Altitude vs Time

uPlot chart will show altitude changes over time

两行轨道根数

1 58244U 23171Q 25350.14351641 .00006130 00000-0 46830-3 0 9991
2 58244 43.0038 21.1797 0001304 271.4725 88.5968 15.02548532117149
Epoch: Dec 16, 2025 • Age: 23 hours

当前状态

高度 558.4 km
速度 7.58 km/s
星下点 11.73°N, 59.66°E
发射日期 Nov 8, 2023
运行时间 2.1 years
类型 internet

技术详情

分类 Payload
质量 730.00 kg
干质量 700.00 kg
总质量 730.00 kg
长度 0.30 m
直径 4.10 m
跨度 29.00 m
形状 Box + pan
制造商 SPXS
平台类型 Starlink V2M
阶段状态 In Orbit
所有者/国家 SPXS/US

大型星座

Loading constellations...